Weather History for Vicksburg, MS

Change the Weather History Date:

Monday, December 3, 2012

  Actual Average Record
Temperature  
Mean Temperature 65 °F 51 °F  
Max Temperature 79 °F 62 °F 83 °F (1982)
Min Temperature 51 °F 40 °F 23 °F (1960)
Degree Days  
Heating Degree Days 0 15  
Month to date heating degree days 6 44  
Since 1 July heating degree days 564 446  
Cooling Degree Days 0 0  
Month to date cooling degree days 4 0  
Year to date cooling degree days 2401 2225  
Growing Degree Days 14 (Base 50)    
Moisture  
Dew Point 57 °F    
Average Humidity 77    
Maximum Humidity 100    
Minimum Humidity 54    
Precipitation  
Precipitation 0.00 in 0.20 in 2.71 in (1953)
Month to date precipitation 0.00 0.60  
Year to date precipitation 46.36 49.73  
Sea Level Pressure  
Sea Level Pressure 30.17 in    
Wind  
Wind Speed 9 mph (SSE)    
Max Wind Speed 18 mph    
Max Gust Speed 24 mph    
Visibility 7 miles    
Events Fog    
T = Trace of Precipitation, MM = Missing Value Source: NWS Daily Summary

Daily Weather History Graph

Daily Weather History Graph

Search for Another Location

Airport:

Trip Planner

Search our weather history database for the weather conditions in past years. The results will help you decide how hot, cold, wet, or windy it might be!

Date:

Astronomy

Dec. 03, 2012 Rise Set
Actual Time 6:49 AM CST 4:58 PM CST
Civil Twilight 6:22 AM CST 5:25 PM CST
Nautical Twilight 5:52 AM CST 5:55 PM CST
Astronomical Twilight 5:22 AM CST 6:25 PM CST
Moon 9:36 PM CST (12/3) 10:20 AM CST (12/3)
Length of Visible Light 11h 02m
Length of Day
10h 08m
Waning Gibbous, 78% of the Moon is Illuminated
Dec 3
Waning Gibbous
Dec 6
Last Quarter
Dec 13
New
Dec 19
First Quarter
Dec 28
Full

Hourly Weather History & Observations

Time (CST) Temp. Dew Point Humidity Pressure Visibility Wind Dir Wind Speed Gust Speed Precip Events Conditions
12:53 AM 61.0 °F 57.9 °F 90% 30.20 in 10.0 mi SSE 5.8 mph - N/A   Clear
1:53 AM 60.1 °F 57.0 °F 90% 30.20 in 10.0 mi SE 5.8 mph - N/A   Clear
2:53 AM 57.0 °F 55.9 °F 96% 30.20 in 10.0 mi SSE 5.8 mph - N/A   Clear
3:53 AM 57.0 °F 55.9 °F 96% 30.19 in 10.0 mi SE 5.8 mph - N/A   Clear
4:53 AM 54.0 °F 54.0 °F 100% 30.19 in 3.0 mi Calm Calm - N/A   Clear
4:57 AM 53.6 °F 53.6 °F 100% 30.18 in 1.5 mi Calm Calm - N/A   Clear
5:17 AM 53.6 °F 51.8 °F 94% 30.17 in 0.8 mi Calm Calm - N/A   Clear
5:31 AM 51.8 °F 51.8 °F 100% 30.17 in 2.5 mi SE 4.6 mph - N/A   Clear
5:38 AM 51.8 °F 51.8 °F 100% 30.17 in 5.0 mi SE 5.8 mph - N/A   Clear
5:53 AM 54.0 °F 53.1 °F 97% 30.19 in 6.0 mi SE 4.6 mph - N/A   Clear
6:21 AM 53.6 °F 51.8 °F 94% 30.18 in 1.5 mi Calm Calm - N/A   Scattered Clouds
6:31 AM 51.8 °F 51.8 °F 100% 30.19 in 0.5 mi Calm Calm - N/A Fog Fog
6:49 AM 51.8 °F 51.8 °F 100% 30.19 in 1.5 mi SE 4.6 mph - N/A   Mostly Cloudy
7:09 AM 51.8 °F 51.8 °F 100% 30.20 in 0.2 mi SE 3.5 mph - N/A Fog Fog
7:27 AM 55.4 °F 53.6 °F 94% 30.20 in 2.0 mi SE 6.9 mph - N/A   Clear
7:36 AM 57.2 °F 57.2 °F 100% 30.20 in 5.0 mi SE 6.9 mph - N/A   Clear
7:53 AM 60.1 °F 59.0 °F 96% 30.22 in 9.0 mi SE 8.1 mph - N/A   Partly Cloudy
8:02 AM 60.8 °F 59.0 °F 94% 30.20 in 9.0 mi SSE 6.9 mph - N/A   Mostly Cloudy
8:11 AM 60.8 °F 59.0 °F 94% 30.20 in 8.0 mi SE 6.9 mph - N/A   Mostly Cloudy
8:53 AM 62.1 °F 60.1 °F 93% 30.23 in 10.0 mi SSE 6.9 mph - N/A   Overcast
9:19 AM 64.4 °F 60.8 °F 88% 30.21 in 10.0 mi SSE 11.5 mph - N/A   Scattered Clouds
9:53 AM 69.1 °F 61.0 °F 75% 30.22 in 10.0 mi SSE 10.4 mph 18.4 mph N/A   Scattered Clouds
10:53 AM 75.0 °F 62.1 °F 64% 30.19 in 10.0 mi South 12.7 mph 21.9 mph N/A   Clear
11:53 AM 78.1 °F 61.0 °F 56% 30.16 in 10.0 mi South 15.0 mph 21.9 mph N/A   Scattered Clouds
12:53 PM 77.0 °F 61.0 °F 58% 30.13 in 10.0 mi South 11.5 mph 23.0 mph N/A   Overcast
1:53 PM 78.1 °F 60.1 °F 54% 30.12 in 10.0 mi South 11.5 mph 17.3 mph N/A   Mostly Cloudy
2:53 PM 78.1 °F 61.0 °F 56% 30.12 in 10.0 mi South 12.7 mph - N/A   Overcast
3:53 PM 75.9 °F 60.1 °F 58% 30.12 in 10.0 mi South 11.5 mph - N/A   Overcast
4:53 PM 73.0 °F 60.1 °F 64% 30.13 in 10.0 mi SSE 6.9 mph - N/A   Partly Cloudy
5:53 PM 73.0 °F 60.1 °F 64% 30.12 in 10.0 mi SSE 8.1 mph - N/A   Overcast
6:53 PM 73.0 °F 60.1 °F 64% 30.13 in 10.0 mi SSE 9.2 mph - N/A   Mostly Cloudy
7:53 PM 70.0 °F 60.1 °F 71% 30.13 in 10.0 mi SSE 11.5 mph - N/A   Partly Cloudy
8:53 PM 70.0 °F 59.0 °F 68% 30.14 in 10.0 mi South 10.4 mph - N/A   Scattered Clouds
9:53 PM 68.0 °F 60.1 °F 76% 30.15 in 10.0 mi South 11.5 mph - N/A   Clear
10:53 PM 66.9 °F 61.0 °F 81% 30.16 in 10.0 mi SSE 9.2 mph - N/A   Overcast
11:53 PM 66.9 °F 62.1 °F 84% 30.15 in 10.0 mi SSE 10.4 mph - N/A   Overcast